TimeCST,TemperatureF,Dew PointF,Humidity,Sea Level PressureIn,VisibilityMPH,Wind Direction,Wind SpeedMPH,Gust SpeedMPH,PrecipitationIn,Events,Conditions,WindDirDegrees,DateUTC
12:15 AM,-16.6,-22.0,76,30.21,10.0,Calm,Calm,-,N/A,,Clear,0,2013-01-01 06:15:00
12:35 AM,-18.4,-23.8,76,30.21,10.0,SSW,3.5,-,N/A,,Clear,200,2013-01-01 06:35:00
12:55 AM,-16.6,-22.0,76,30.21,10.0,Calm,Calm,-,N/A,,Clear,0,2013-01-01 06:55:00
1:15 AM,-18.4,-23.8,76,30.20,10.0,Calm,Calm,-,N/A,,Clear,0,2013-01-01 07:15:00
1:35 AM,-16.6,-22.0,76,30.20,10.0,Calm,Calm,-,N/A,,Clear,0,2013-01-01 07:35:00
1:55 AM,-16.6,-22.0,76,30.20,10.0,Calm,Calm,-,N/A,,Clear,0,2013-01-01 07:55:00
2:15 AM,-16.6,-22.0,76,30.20,10.0,Calm,Calm,-,N/A,,Clear,0,2013-01-01 08:15:00
2:35 AM,-18.4,-25.6,70,30.20,10.0,Calm,Calm,-,N/A,,Clear,0,2013-01-01 08:35:00
2:55 AM,-18.4,-23.8,76,30.20,10.0,South,4.6,-,N/A,,Clear,190,2013-01-01 08:55:00
3:15 AM,-16.6,-22.0,76,30.19,10.0,SSW,3.5,-,N/A,,Clear,200,2013-01-01 09:15:00
3:35 AM,-20.2,-25.6,76,30.19,10.0,South,3.5,-,N/A,,Clear,180,2013-01-01 09:35:00
3:55 AM,-18.4,-23.8,76,30.20,10.0,South,3.5,-,N/A,,Clear,190,2013-01-01 09:55:00
4:15 AM,-18.4,-23.8,76,30.19,10.0,Calm,Calm,-,N/A,,Clear,0,2013-01-01 10:15:00
4:35 AM,-16.6,-22.0,76,30.19,10.0,Calm,Calm,-,N/A,,Clear,0,2013-01-01 10:35:00
4:55 AM,-16.6,-22.0,76,30.19,10.0,Calm,Calm,-,N/A,,Clear,0,2013-01-01 10:55:00
5:15 AM,-18.4,-23.8,76,30.19,10.0,Calm,Calm,-,N/A,,Clear,0,2013-01-01 11:15:00
5:35 AM,-20.2,-25.6,76,30.19,10.0,Calm,Calm,-,N/A,,Clear,0,2013-01-01 11:35:00
5:55 AM,-16.6,-22.0,76,30.19,10.0,Calm,Calm,-,N/A,,Mostly Cloudy,0,2013-01-01 11:55:00
6:15 AM,-14.8,-18.4,84,30.19,10.0,Calm,Calm,-,N/A,,Overcast,0,2013-01-01 12:15:00
6:35 AM,-13.0,-16.6,84,30.18,7.0,Calm,Calm,-,N/A,Snow,Light Snow,0,2013-01-01 12:35:00
6:55 AM,-9.4,-14.8,77,30.18,7.0,Calm,Calm,-,N/A,Snow,Light Snow,0,2013-01-01 12:55:00
7:15 AM,-5.8,-9.4,84,30.17,7.0,Calm,Calm,-,N/A,Snow,Light Snow,0,2013-01-01 13:15:00
7:35 AM,-5.8,-9.4,84,30.17,7.0,South,4.6,-,N/A,Snow,Light Snow,190,2013-01-01 13:35:00
7:55 AM,-4.0,-7.6,85,30.17,10.0,South,4.6,-,N/A,Snow,Light Snow,180,2013-01-01 13:55:00
8:15 AM,-4.0,-7.6,85,30.16,10.0,South,6.9,-,N/A,,Overcast,190,2013-01-01 14:15:00
8:35 AM,-4.0,-7.6,85,30.15,10.0,South,8.1,-,N/A,,Overcast,190,2013-01-01 14:35:00
8:55 AM,-2.2,-5.8,85,30.15,10.0,South,6.9,-,N/A,,Overcast,190,2013-01-01 14:55:00
9:15 AM,-0.4,-4.0,85,30.15,10.0,South,6.9,-,N/A,,Overcast,190,2013-01-01 15:15:00
9:35 AM,1.4,-4.0,78,30.15,10.0,South,5.8,-,N/A,,Overcast,190,2013-01-01 15:35:00
9:55 AM,1.4,-2.2,85,30.15,3.0,South,6.9,-,N/A,Snow,Light Snow,190,2013-01-01 15:55:00
10:15 AM,3.2,-0.4,85,30.14,3.0,South,5.8,-,N/A,Snow,Light Snow,190,2013-01-01 16:15:00
10:35 AM,3.2,1.4,92,30.14,2.0,South,4.6,-,N/A,Snow,Light Snow,180,2013-01-01 16:35:00
10:55 AM,5.0,1.4,85,30.13,1.5,South,6.9,-,N/A,Snow,Light Snow,180,2013-01-01 16:55:00
11:15 AM,5.0,3.2,92,30.12,1.5,South,4.6,-,N/A,Snow,Light Snow,180,2013-01-01 17:15:00
11:35 AM,8.6,5.0,85,30.11,1.5,South,4.6,-,N/A,Snow,Light Snow,190,2013-01-01 17:35:00
11:55 AM,8.6,6.8,92,30.10,4.0,South,5.8,-,N/A,Snow,Light Snow,190,2013-01-01 17:55:00
12:15 PM,10.4,8.6,92,30.09,4.0,South,6.9,-,N/A,Snow,Light Snow,190,2013-01-01 18:15:00
12:35 PM,10.4,8.6,92,30.07,4.0,South,9.2,-,N/A,Snow,Light Snow,190,2013-01-01 18:35:00
12:55 PM,12.2,8.6,85,30.07,7.0,South,6.9,-,N/A,,Overcast,190,2013-01-01 18:55:00
1:15 PM,12.2,8.6,85,30.06,10.0,South,6.9,-,N/A,,Overcast,180,2013-01-01 19:15:00
1:35 PM,14.0,10.4,86,30.06,10.0,SSW,6.9,-,N/A,,Overcast,200,2013-01-01 19:35:00
1:55 PM,14.0,10.4,86,30.05,10.0,South,8.1,-,N/A,,Overcast,190,2013-01-01 19:55:00
2:15 PM,14.0,10.4,86,30.05,10.0,South,6.9,-,N/A,,Overcast,180,2013-01-01 20:15:00
2:35 PM,14.0,10.4,86,30.05,10.0,South,8.1,-,N/A,,Overcast,190,2013-01-01 20:35:00
2:55 PM,14.0,10.4,86,30.05,10.0,South,5.8,-,N/A,,Overcast,190,2013-01-01 20:55:00
3:15 PM,14.0,10.4,86,30.05,10.0,South,5.8,-,N/A,,Overcast,180,2013-01-01 21:15:00
3:35 PM,14.0,10.4,86,30.05,10.0,South,8.1,-,N/A,,Overcast,180,2013-01-01 21:35:00
3:55 PM,14.0,10.4,86,30.04,10.0,South,6.9,-,N/A,,Overcast,180,2013-01-01 21:55:00
4:15 PM,14.0,12.2,93,30.04,10.0,South,5.8,-,N/A,,Overcast,190,2013-01-01 22:15:00
4:35 PM,14.0,12.2,93,30.04,10.0,South,5.8,-,N/A,,Overcast,180,2013-01-01 22:35:00
4:55 PM,15.8,12.2,86,30.03,10.0,South,5.8,-,N/A,,Overcast,180,2013-01-01 22:55:00
5:15 PM,15.8,14.0,93,30.03,10.0,South,4.6,-,N/A,,Overcast,180,2013-01-01 23:15:00
5:35 PM,17.6,14.0,86,30.02,10.0,South,3.5,-,N/A,,Overcast,190,2013-01-01 23:35:00
5:55 PM,17.6,14.0,86,30.02,10.0,South,3.5,-,N/A,,Overcast,180,2013-01-01 23:55:00
6:15 PM,17.6,15.8,93,30.01,10.0,South,4.6,-,N/A,,Overcast,170,2013-01-02 00:15:00
6:35 PM,17.6,15.8,93,30.00,10.0,South,5.8,-,N/A,,Overcast,170,2013-01-02 00:35:00
6:55 PM,19.4,17.6,93,29.99,10.0,South,6.9,-,N/A,,Overcast,180,2013-01-02 00:55:00
7:15 PM,19.4,17.6,93,29.98,10.0,South,8.1,-,N/A,,Overcast,190,2013-01-02 01:15:00
7:35 PM,19.4,17.6,93,29.98,10.0,South,9.2,-,N/A,,Overcast,180,2013-01-02 01:35:00
7:55 PM,19.4,17.6,93,29.97,10.0,South,8.1,-,N/A,,Overcast,180,2013-01-02 01:55:00
8:15 PM,19.4,17.6,93,29.97,10.0,South,10.4,-,N/A,,Overcast,190,2013-01-02 02:15:00
8:35 PM,21.2,17.6,86,29.96,10.0,South,10.4,-,N/A,,Overcast,190,2013-01-02 02:35:00
8:55 PM,21.2,17.6,86,29.95,10.0,South,9.2,-,N/A,,Overcast,190,2013-01-02 02:55:00
9:15 PM,21.2,17.6,86,29.95,10.0,South,10.4,-,N/A,,Overcast,190,2013-01-02 03:15:00
9:35 PM,21.2,17.6,86,29.94,10.0,South,10.4,-,N/A,,Overcast,180,2013-01-02 03:35:00
9:55 PM,19.4,17.6,93,29.94,10.0,South,10.4,16.1,N/A,,Overcast,190,2013-01-02 03:55:00
10:15 PM,19.4,17.6,93,29.94,10.0,South,10.4,-,N/A,,Overcast,190,2013-01-02 04:15:00
10:35 PM,19.4,17.6,93,29.94,10.0,SSW,8.1,-,N/A,,Overcast,200,2013-01-02 04:35:00
10:55 PM,19.4,17.6,93,29.94,10.0,SSW,10.4,-,N/A,,Overcast,200,2013-01-02 04:55:00
11:15 PM,21.2,17.6,86,29.93,10.0,SSW,9.2,-,N/A,,Overcast,210,2013-01-02 05:15:00
11:35 PM,19.4,17.6,93,29.93,10.0,South,10.4,-,N/A,,Overcast,190,2013-01-02 05:35:00
11:55 PM,21.2,17.6,86,29.93,10.0,SSW,9.2,-,N/A,,Overcast,200,2013-01-02 05:55:00